QPF
0.00 0.00 0.01 0.02 0.04 0.02 0.01 0.00 0.00 0.00 0.00 0.00 0.00 0.00 0.00 0.01 0.03 0.05 0.05 0.05 0.04 0.04 0.04 0.03 0.04 0.04 0.05 0.05 0.06 0.06 0.06 0.06 0.07 0.09 0.09 0.11 0.10 0.09 0.09 0.09 0.08 0.06 0.05 0.07 0.10 0.10 0.10 0.09 0.07
0.00 0.00 0.01 0.02 0.03 0.01 0.01 0.00 0.00 0.00 0.00 0.00 0.00 0.01 0.01 0.00 0.00 0.01 0.03 0.03 0.03 0.03 0.03 0.02 0.02 0.02 0.03 0.04 0.04 0.04 0.04 0.04 0.05 0.06 0.07 0.07 0.07 0.07 0.08 0.09 0.08 0.07 0.08 0.09 0.08 0.07 0.07 0.07 0.07
0.00 0.00 0.00 0.01 0.01 0.01 0.01 0.00 0.00 0.00 0.00 0.00 0.00 0.00 0.01 0.01 0.01 0.02 0.02 0.01 0.01 0.01 0.01 0.01 0.01 0.02 0.02 0.03 0.04 0.05 0.03 0.03 0.04 0.05 0.07 0.06 0.07 0.08 0.08 0.09 0.09 0.07 0.07 0.07 0.05 0.05 0.05 0.05 0.05
0.00 0.00 0.00 0.00 0.00 0.00 0.00 0.00 0.00 0.00 0.00 0.00 0.00 0.01 0.01 0.02 0.02 0.02 0.01 0.01 0.00 0.01 0.01 0.00 0.01 0.01 0.02 0.02 0.04 0.05 0.03 0.03 0.04 0.05 0.05 0.04 0.05 0.07 0.07 0.07 0.06 0.06 0.05 0.05 0.04 0.04 0.04 0.04 0.04
0.00 0.00 0.00 0.00 0.00 0.00 0.00 0.00 0.00 0.00 0.00 0.00 0.00 0.01 0.01 0.02 0.00 0.00 0.02 0.01 0.00 0.01 0.01 0.00 0.01 0.02 0.02 0.02 0.04 0.04 0.03 0.03 0.03 0.04 0.03 0.04 0.05 0.06 0.06 0.04 0.05 0.05 0.03 0.03 0.03 0.03 0.03 0.03 0.03
0.01 0.01 0.00 0.00 0.00 0.00 0.00 0.00 0.00 0.00 0.00 0.00 0.00 0.00 0.01 0.00 0.00 0.01 0.02 0.01 0.00 0.01 0.01 0.01 0.01 0.01 0.01 0.01 0.03 0.03 0.02 0.03 0.03 0.03 0.02 0.02 0.03 0.03 0.05 0.04 0.04 0.04 0.03 0.02 0.01 0.02 0.02 0.02 0.02
0.01 0.01 0.00 0.00 0.01 0.00 0.00 0.00 0.00 0.00 0.00 0.00 0.00 0.00 0.00 0.00 0.00 0.00 0.01 0.00 0.00 0.01 0.01 0.02 0.02 0.02 0.01 0.01 0.01 0.02 0.02 0.02 0.02 0.02 0.02 0.02 0.02 0.02 0.03 0.03 0.02 0.02 0.01 0.01 0.02 0.02 0.02 0.02 0.01
0.00 0.00 0.00 0.00 0.01 0.00 0.00 0.00 0.00 0.00 0.00 0.00 0.00 0.00 0.00 0.00 0.00 0.00 0.00 0.00 0.00 0.00 0.01 0.01 0.01 0.03 0.04 0.01 0.01 0.02 0.01 0.01 0.01 0.01 0.02 0.03 0.03 0.03 0.03 0.03 0.02 0.01 0.01 0.01 0.01 0.01 0.02 0.01 0.01
0.00 0.00 0.00 0.00 0.00 0.00 0.00 0.00 0.00 0.00 0.00 0.00 0.00 0.00 0.00 0.00 0.00 0.00 0.01 0.00 0.01 0.01 0.01 0.01 0.02 0.03 0.05 0.03 0.01 0.02 0.02 0.02 0.03 0.03 0.03 0.11 0.15 0.07 0.07 0.04 0.03 0.01 0.01 0.01 0.01 0.01 0.01 0.01 0.01
0.00 0.01 0.00 0.00 0.00 0.00 0.00 0.00 0.00 0.00 0.00 0.00 0.00 0.00 0.00 0.00 0.00 0.00 0.00 0.01 0.01 0.01 0.01 0.01 0.02 0.02 0.03 0.03 0.03 0.06 0.06 0.06 0.09 0.09 0.08 0.11 0.10 0.07 0.04 0.05 0.03 0.02 0.01 0.01 0.01 0.01 0.02 0.02 0.02
0.00 0.00 0.00 0.00 0.00 0.00 0.00 0.00 0.00 0.00 0.00 0.00 0.00 0.00 0.00 0.00 0.00 0.00 0.00 0.01 0.02 0.02 0.02 0.02 0.01 0.01 0.02 0.04 0.03 0.04 0.06 0.08 0.10 0.07 0.06 0.06 0.04 0.03 0.03 0.05 0.03 0.02 0.02 0.02 0.03 0.03 0.03 0.03 0.03
0.00 0.00 0.00 0.00 0.00 0.00 0.00 0.00 0.00 0.00 0.00 0.00 0.00 0.00 0.00 0.00 0.00 0.00 0.00 0.01 0.01 0.02 0.02 0.01 0.01 0.01 0.02 0.03 0.03 0.03 0.04 0.06 0.12 0.07 0.06 0.05 0.05 0.06 0.07 0.07 0.04 0.04 0.04 0.04 0.04 0.04 0.02 0.01 0.01
0.00 0.00 0.00 0.00 0.00 0.00 0.00 0.00 0.01 0.00 0.00 0.00 0.00 0.00 0.00 0.00 0.00 0.00 0.00 0.00 0.01 0.01 0.02 0.01 0.01 0.01 0.02 0.03 0.06 0.04 0.03 0.05 0.12 0.06 0.05 0.06 0.05 0.05 0.05 0.05 0.05 0.03 0.03 0.03 0.04 0.03 0.03 0.03 0.02
0.00 0.00 0.01 0.00 0.00 0.00 0.01 0.02 0.01 0.00 0.00 0.00 0.00 0.00 0.00 0.00 0.00 0.00 0.01 0.00 0.01 0.01 0.02 0.02 0.01 0.00 0.01 0.03 0.05 0.04 0.03 0.05 0.06 0.06 0.06 0.05 0.05 0.06 0.06 0.06 0.06 0.04 0.03 0.03 0.04 0.04 0.05 0.03 0.03
0.00 0.00 0.00 0.00 0.00 0.00 0.02 0.02 0.02 0.00 0.00 0.00 0.00 0.00 0.00 0.00 0.00 0.00 0.03 0.01 0.01 0.01 0.02 0.03 0.02 0.00 0.01 0.03 0.04 0.04 0.03 0.04 0.06 0.07 0.04 0.05 0.04 0.05 0.06 0.08 0.06 0.05 0.03 0.03 0.04 0.03 0.05 0.05 0.04
0.00 0.01 0.01 0.01 0.01 0.00 0.02 0.06 0.03 0.00 0.00 0.00 0.00 0.00 0.00 0.00 0.00 0.00 0.00 0.00 0.01 0.01 0.02 0.03 0.02 0.03 0.04 0.05 0.05 0.04 0.03 0.04 0.05 0.05 0.04 0.03 0.02 0.03 0.07 0.07 0.06 0.05 0.03 0.03 0.05 0.06 0.07 0.07 0.05
0.01 0.01 0.03 0.03 0.01 0.00 0.01 0.02 0.01 0.00 0.00 0.00 0.00 0.00 0.00 0.00 0.00 0.00 0.00 0.01 0.01 0.01 0.01 0.02 0.03 0.04 0.05 0.06 0.06 0.06 0.04 0.04 0.05 0.03 0.03 0.03 0.02 0.03 0.06 0.07 0.07 0.05 0.07 0.07 0.06 0.10 0.09 0.10 0.08
0.01 0.01 0.01 0.00 0.00 0.00 0.00 0.00 0.00 0.00 0.00 0.00 0.00 0.01 0.00 0.00 0.00 0.00 0.00 0.01 0.01 0.00 0.01 0.01 0.03 0.04 0.05 0.06 0.06 0.07 0.05 0.04 0.04 0.04 0.05 0.04 0.04 0.03 0.05 0.07 0.06 0.05 0.08 0.09 0.09 0.11 0.10 0.10 0.12
0.01 0.01 0.00 0.00 0.00 0.00 0.00 0.00 0.00 0.00 0.00 0.00 0.00 0.00 0.00 0.00 0.00 0.00 0.00 0.00 0.00 0.00 0.00 0.01 0.03 0.04 0.05 0.07 0.07 0.08 0.06 0.04 0.03 0.05 0.04 0.03 0.02 0.03 0.07 0.06 0.09 0.05 0.09 0.09 0.09 0.12 0.13 0.14 0.15
0.01 0.01 0.00 0.00 0.00 0.00 0.01 0.01 0.00 0.00 0.00 0.00 0.00 0.00 0.00 0.00 0.01 0.01 0.01 0.00 0.00 0.00 0.00 0.01 0.03 0.04 0.05 0.07 0.07 0.07 0.06 0.04 0.04 0.05 0.06 0.03 0.04 0.05 0.06 0.10 0.09 0.08 0.09 0.09 0.10 0.11 0.11 0.11 0.12
0.01 0.01 0.00 0.00 0.00 0.00 0.00 0.03 0.03 0.01 0.00 0.00 0.00 0.00 0.00 0.00 0.00 0.01 0.01 0.00 0.00 0.01 0.01 0.01 0.02 0.04 0.06 0.07 0.07 0.06 0.06 0.05 0.05 0.06 0.08 0.06 0.05 0.05 0.07 0.10 0.11 0.10 0.08 0.11 0.11 0.09 0.10 0.10 0.11
0.00 0.00 0.00 0.00 0.00 0.00 0.00 0.02 0.03 0.01 0.01 0.00 0.00 0.00 0.00 0.00 0.00 0.00 0.00 0.00 0.00 0.01 0.02 0.02 0.02 0.05 0.06 0.06 0.06 0.07 0.06 0.06 0.07 0.08 0.08 0.07 0.06 0.04 0.05 0.07 0.10 0.10 0.10 0.12 0.08 0.10 0.12 0.12 0.12
0.00 0.00 0.00 0.00 0.00 0.00 0.00 0.01 0.01 0.01 0.01 0.00 0.00 0.00 0.00 0.00 0.01 0.01 0.00 0.00 0.00 0.01 0.02 0.02 0.03 0.06 0.06 0.05 0.06 0.07 0.05 0.06 0.08 0.09 0.10 0.10 0.09 0.06 0.05 0.06 0.08 0.08 0.09 0.09 0.09 0.12 0.12 0.13 0.13
0.00 0.00 0.00 0.00 0.00 0.00 0.00 0.01 0.01 0.01 0.01 0.00 0.00 0.00 0.00 0.00 0.00 0.00 0.00 0.00 0.00 0.01 0.01 0.02 0.04 0.06 0.07 0.06 0.07 0.08 0.09 0.11 0.11 0.11 0.11 0.09 0.09 0.08 0.05 0.06 0.08 0.08 0.08 0.08 0.07 0.09 0.11 0.12 0.14
0.00 0.00 0.00 0.00 0.00 0.00 0.00 0.01 0.02 0.00 0.00 0.00 0.00 0.00 0.01 0.00 0.00 0.00 0.00 0.00 0.00 0.00 0.00 0.00 0.03 0.05 0.06 0.07 0.07 0.07 0.08 0.10 0.11 0.10 0.09 0.09 0.08 0.07 0.06 0.06 0.06 0.06 0.06 0.07 0.09 0.09 0.09 0.11 0.12
0.00 0.01 0.01 0.01 0.01 0.00 0.00 0.01 0.01 0.00 0.00 0.00 0.00 0.00 0.02 0.01 0.01 0.02 0.01 0.00 0.00 0.00 0.00 0.00 0.02 0.04 0.05 0.06 0.07 0.07 0.08 0.09 0.11 0.11 0.09 0.07 0.06 0.05 0.05 0.05 0.04 0.04 0.04 0.05 0.07 0.07 0.08 0.11 0.11
0.00 0.00 0.00 0.01 0.01 0.00 0.00 0.01 0.00 0.00 0.00 0.00 0.00 0.00 0.04 0.02 0.01 0.03 0.03 0.00 0.00 0.00 0.00 0.00 0.02 0.04 0.04 0.05 0.07 0.08 0.07 0.07 0.08 0.08 0.06 0.05 0.05 0.04 0.04 0.04 0.05 0.04 0.04 0.03 0.05 0.05 0.07 0.11 0.11
0.00 0.00 0.00 0.00 0.00 0.01 0.00 0.00 0.01 0.01 0.00 0.00 0.00 0.01 0.00 0.00 0.01 0.06 0.06 0.01 0.00 0.00 0.01 0.01 0.03 0.05 0.05 0.06 0.07 0.08 0.08 0.05 0.05 0.05 0.07 0.07 0.06 0.04 0.04 0.04 0.04 0.04 0.04 0.04 0.04 0.04 0.05 0.07 0.08
0.00 0.00 0.00 0.00 0.00 0.01 0.01 0.02 0.01 0.01 0.00 0.00 0.00 0.01 0.01 0.00 0.00 0.01 0.01 0.00 0.00 0.00 0.01 0.01 0.03 0.04 0.05 0.06 0.07 0.07 0.05 0.04 0.05 0.05 0.07 0.07 0.08 0.06 0.04 0.04 0.04 0.04 0.04 0.04 0.05 0.04 0.04 0.04 0.05
0.00 0.00 0.00 0.00 0.00 0.00 0.01 0.02 0.01 0.03 0.05 0.01 0.01 0.02 0.00 0.00 0.00 0.00 0.00 0.00 0.00 0.00 0.01 0.02 0.03 0.04 0.04 0.05 0.05 0.04 0.05 0.06 0.06 0.06 0.07 0.07 0.07 0.05 0.04 0.04 0.03 0.04 0.05 0.06 0.06 0.05 0.05 0.05 0.05
MSLP
1004.05 1004.81 1005.85 1007.03 1008.18 1009.15 1009.86 1010.27 1010.43 1010.43 1010.37 1010.35 1010.42 1010.61 1010.87 1011.17 1011.45 1011.69 1011.87 1012.03 1012.21 1012.46 1012.79 1013.19 1013.64 1014.06 1014.39 1014.59 1014.62 1014.51 1014.31 1014.09 1013.91 1013.82 1013.84 1013.95 1014.12 1014.30 1014.46 1014.55 1014.60 1014.63 1014.65 1014.70 1014.79 1014.93 1015.08 1015.22 1015.32
1004.14 1005.09 1006.27 1007.52 1008.67 1009.59 1010.21 1010.52 1010.58 1010.50 1010.39 1010.34 1010.40 1010.57 1010.82 1011.09 1011.35 1011.56 1011.74 1011.92 1012.15 1012.46 1012.88 1013.37 1013.88 1014.35 1014.71 1014.90 1014.93 1014.81 1014.61 1014.40 1014.25 1014.20 1014.26 1014.39 1014.57 1014.74 1014.87 1014.93 1014.95 1014.96 1014.97 1015.03 1015.14 1015.28 1015.43 1015.55 1015.62
1004.35 1005.46 1006.74 1008.02 1009.13 1009.96 1010.46 1010.66 1010.63 1010.49 1010.35 1010.29 1010.35 1010.52 1010.76 1011.01 1011.23 1011.41 1011.57 1011.75 1012.00 1012.36 1012.84 1013.40 1013.98 1014.51 1014.91 1015.13 1015.18 1015.10 1014.93 1014.76 1014.66 1014.65 1014.73 1014.88 1015.05 1015.19 1015.28 1015.30 1015.29 1015.28 1015.29 1015.36 1015.48 1015.63 1015.78 1015.87 1015.90
1004.66 1005.89 1007.23 1008.50 1009.54 1010.26 1010.64 1010.73 1010.63 1010.44 1010.29 1010.24 1010.31 1010.49 1010.72 1010.94 1011.12 1011.25 1011.37 1011.54 1011.80 1012.19 1012.72 1013.34 1013.99 1014.57 1015.03 1015.30 1015.40 1015.37 1015.25 1015.14 1015.09 1015.12 1015.23 1015.38 1015.53 1015.64 1015.68 1015.67 1015.63 1015.60 1015.62 1015.70 1015.83 1015.99 1016.13 1016.20 1016.18
1005.03 1006.34 1007.69 1008.91 1009.86 1010.48 1010.76 1010.77 1010.60 1010.40 1010.25 1010.22 1010.31 1010.50 1010.71 1010.90 1011.04 1011.13 1011.21 1011.35 1011.61 1012.02 1012.59 1013.26 1013.96 1014.60 1015.10 1015.43 1015.58 1015.60 1015.55 1015.50 1015.50 1015.57 1015.69 1015.85 1015.98 1016.05 1016.06 1016.02 1015.96 1015.92 1015.94 1016.04 1016.18 1016.34 1016.47 1016.51 1016.46
1005.41 1006.73 1008.05 1009.20 1010.07 1010.60 1010.80 1010.76 1010.58 1010.38 1010.26 1010.26 1010.38 1010.57 1010.78 1010.94 1011.03 1011.08 1011.13 1011.26 1011.52 1011.94 1012.53 1013.23 1013.96 1014.63 1015.17 1015.53 1015.72 1015.79 1015.79 1015.78 1015.82 1015.93 1016.07 1016.22 1016.34 1016.40 1016.38 1016.32 1016.25 1016.21 1016.24 1016.35 1016.50 1016.66 1016.77 1016.78 1016.69
1005.73 1007.01 1008.26 1009.33 1010.12 1010.58 1010.75 1010.69 1010.53 1010.37 1010.31 1010.36 1010.51 1010.72 1010.92 1011.07 1011.14 1011.16 1011.19 1011.31 1011.57 1012.01 1012.60 1013.31 1014.04 1014.70 1015.24 1015.60 1015.80 1015.89 1015.91 1015.94 1016.02 1016.14 1016.31 1016.47 1016.58 1016.63 1016.61 1016.54 1016.47 1016.44 1016.48 1016.59 1016.74 1016.89 1016.97 1016.96 1016.83
1005.98 1007.16 1008.32 1009.29 1010.00 1010.42 1010.57 1010.55 1010.44 1010.36 1010.37 1010.48 1010.68 1010.92 1011.13 1011.28 1011.35 1011.37 1011.42 1011.54 1011.80 1012.24 1012.82 1013.50 1014.19 1014.81 1015.30 1015.63 1015.81 1015.89 1015.92 1015.96 1016.05 1016.20 1016.38 1016.55 1016.68 1016.74 1016.72 1016.66 1016.60 1016.58 1016.62 1016.72 1016.86 1016.99 1017.05 1017.01 1016.85
1006.14 1007.20 1008.23 1009.10 1009.74 1010.13 1010.30 1010.33 1010.30 1010.31 1010.41 1010.60 1010.87 1011.15 1011.39 1011.57 1011.66 1011.71 1011.78 1011.92 1012.19 1012.60 1013.15 1013.78 1014.40 1014.94 1015.35 1015.61 1015.74 1015.79 1015.80 1015.84 1015.95 1016.11 1016.31 1016.50 1016.65 1016.72 1016.72 1016.68 1016.63 1016.61 1016.65 1016.74 1016.86 1016.96 1016.99 1016.92 1016.75
1006.27 1007.19 1008.07 1008.82 1009.39 1009.75 1009.94 1010.04 1010.10 1010.22 1010.41 1010.69 1011.03 1011.37 1011.67 1011.89 1012.04 1012.14 1012.24 1012.40 1012.67 1013.06 1013.55 1014.09 1014.62 1015.05 1015.37 1015.54 1015.61 1015.61 1015.60 1015.63 1015.74 1015.92 1016.14 1016.35 1016.52 1016.62 1016.64 1016.61 1016.57 1016.55 1016.58 1016.65 1016.74 1016.81 1016.82 1016.74 1016.57
1006.43 1007.19 1007.91 1008.54 1009.02 1009.35 1009.57 1009.72 1009.87 1010.08 1010.37 1010.74 1011.16 1011.57 1011.94 1012.23 1012.44 1012.60 1012.74 1012.93 1013.19 1013.54 1013.95 1014.40 1014.81 1015.13 1015.34 1015.44 1015.44 1015.39 1015.36 1015.39 1015.51 1015.69 1015.92 1016.15 1016.34 1016.46 1016.51 1016.50 1016.46 1016.44 1016.44 1016.49 1016.55 1016.60 1016.59 1016.50 1016.34
1006.69 1007.28 1007.84 1008.33 1008.72 1009.00 1009.22 1009.41 1009.64 1009.92 1010.30 1010.75 1011.25 1011.74 1012.18 1012.55 1012.83 1013.05 1013.24 1013.44 1013.68 1013.97 1014.30 1014.64 1014.94 1015.17 1015.29 1015.32 1015.27 1015.21 1015.17 1015.19 1015.30 1015.49 1015.73 1015.97 1016.17 1016.30 1016.37 1016.36 1016.33 1016.30 1016.29 1016.31 1016.34 1016.37 1016.36 1016.28 1016.14
1007.10 1007.52 1007.92 1008.26 1008.54 1008.77 1008.96 1009.17 1009.43 1009.78 1010.22 1010.73 1011.30 1011.86 1012.39 1012.83 1013.19 1013.47 1013.69 1013.90 1014.10 1014.33 1014.58 1014.82 1015.02 1015.17 1015.23 1015.22 1015.16 1015.09 1015.05 1015.08 1015.19 1015.37 1015.59 1015.82 1016.02 1016.16 1016.23 1016.24 1016.21 1016.17 1016.14 1016.14 1016.16 1016.18 1016.17 1016.12 1016.02
1007.65 1007.92 1008.16 1008.36 1008.53 1008.68 1008.84 1009.04 1009.31 1009.68 1010.15 1010.71 1011.32 1011.95 1012.55 1013.07 1013.50 1013.83 1014.08 1014.27 1014.44 1014.61 1014.77 1014.93 1015.06 1015.15 1015.19 1015.17 1015.13 1015.08 1015.06 1015.09 1015.18 1015.34 1015.53 1015.73 1015.91 1016.03 1016.10 1016.11 1016.09 1016.05 1016.03 1016.02 1016.03 1016.05 1016.06 1016.04 1015.99
1008.30 1008.43 1008.53 1008.61 1008.68 1008.76 1008.87 1009.04 1009.29 1009.65 1010.12 1010.69 1011.33 1012.01 1012.66 1013.25 1013.74 1014.11 1014.38 1014.57 1014.70 1014.81 1014.90 1014.99 1015.08 1015.14 1015.19 1015.20 1015.20 1015.18 1015.18 1015.20 1015.27 1015.38 1015.52 1015.67 1015.81 1015.92 1015.98 1015.99 1015.98 1015.96 1015.94 1015.93 1015.95 1015.98 1016.02 1016.03 1016.02
1008.95 1008.97 1008.98 1008.97 1008.98 1009.00 1009.06 1009.18 1009.39 1009.70 1010.14 1010.69 1011.33 1012.03 1012.72 1013.36 1013.90 1014.31 1014.60 1014.79 1014.89 1014.95 1014.99 1015.04 1015.10 1015.17 1015.24 1015.30 1015.35 1015.37 1015.38 1015.40 1015.43 1015.47 1015.54 1015.63 1015.71 1015.78 1015.84 1015.86 1015.87 1015.86 1015.86 1015.87 1015.90 1015.95 1016.01 1016.06 1016.09
1009.52 1009.48 1009.44 1009.40 1009.38 1009.38 1009.41 1009.48 1009.62 1009.86 1010.22 1010.71 1011.31 1011.99 1012.70 1013.37 1013.96 1014.42 1014.74 1014.93 1015.01 1015.04 1015.05 1015.08 1015.14 1015.23 1015.34 1015.45 1015.55 1015.61 1015.63 1015.63 1015.60 1015.58 1015.57 1015.57 1015.60 1015.64 1015.68 1015.72 1015.75 1015.78 1015.80 1015.83 1015.87 1015.93 1016.01 1016.09 1016.14
1009.94 1009.90 1009.87 1009.87 1009.89 1009.90 1009.91 1009.93 1009.99 1010.12 1010.37 1010.75 1011.26 1011.89 1012.58 1013.27 1013.90 1014.40 1014.76 1014.98 1015.08 1015.11 1015.11 1015.13 1015.19 1015.31 1015.46 1015.63 1015.77 1015.86 1015.88 1015.85 1015.77 1015.67 1015.58 1015.52 1015.49 1015.50 1015.54 1015.60 1015.66 1015.71 1015.76 1015.80 1015.85 1015.92 1016.00 1016.09 1016.16
1010.20 1010.22 1010.29 1010.40 1010.50 1010.58 1010.60 1010.56 1010.52 1010.50 1010.58 1010.80 1011.18 1011.72 1012.36 1013.05 1013.71 1014.26 1014.68 1014.95 1015.08 1015.13 1015.14 1015.17 1015.25 1015.40 1015.59 1015.79 1015.97 1016.08 1016.11 1016.06 1015.93 1015.77 1015.61 1015.49 1015.42 1015.41 1015.45 1015.53 1015.61 1015.69 1015.76 1015.81 1015.86 1015.91 1015.98 1016.06 1016.14
1010.32 1010.47 1010.71 1010.99 1011.25 1011.42 1011.46 1011.37 1011.20 1011.00 1010.87 1010.88 1011.08 1011.47 1012.04 1012.70 1013.38 1014.00 1014.49 1014.83 1015.02 1015.11 1015.16 1015.21 1015.31 1015.47 1015.69 1015.93 1016.13 1016.27 1016.31 1016.24 1016.09 1015.89 1015.69 1015.53 1015.44 1015.42 1015.47 1015.56 1015.67 1015.76 1015.84 1015.88 1015.91 1015.94 1015.99 1016.05 1016.12
1010.39 1010.72 1011.19 1011.69 1012.13 1012.42 1012.50 1012.35 1012.03 1011.61 1011.23 1010.99 1010.96 1011.18 1011.64 1012.26 1012.95 1013.63 1014.20 1014.63 1014.90 1015.06 1015.15 1015.23 1015.35 1015.53 1015.76 1016.02 1016.25 1016.41 1016.47 1016.42 1016.27 1016.07 1015.86 1015.69 1015.59 1015.57 1015.63 1015.74 1015.85 1015.96 1016.03 1016.06 1016.05 1016.05 1016.05 1016.07 1016.12
1010.47 1011.03 1011.76 1012.51 1013.15 1013.56 1013.67 1013.45 1012.96 1012.32 1011.67 1011.15 1010.87 1010.89 1011.21 1011.77 1012.47 1013.20 1013.85 1014.38 1014.74 1014.97 1015.11 1015.22 1015.36 1015.55 1015.80 1016.07 1016.33 1016.52 1016.62 1016.61 1016.49 1016.32 1016.14 1015.98 1015.89 1015.89 1015.95 1016.06 1016.19 1016.28 1016.33 1016.33 1016.30 1016.24 1016.20 1016.18 1016.20
1010.64 1011.44 1012.42 1013.41 1014.24 1014.77 1014.89 1014.59 1013.94 1013.07 1012.15 1011.35 1010.82 1010.64 1010.82 1011.31 1012.00 1012.77 1013.51 1014.12 1014.58 1014.88 1015.07 1015.21 1015.36 1015.55 1015.80 1016.08 1016.37 1016.61 1016.76 1016.81 1016.76 1016.65 1016.51 1016.40 1016.33 1016.34 1016.41 1016.52 1016.63 1016.71 1016.74 1016.71 1016.63 1016.54 1016.45 1016.38 1016.36
1010.91 1011.93 1013.13 1014.32 1015.31 1015.91 1016.04 1015.67 1014.88 1013.80 1012.64 1011.61 1010.85 1010.49 1010.53 1010.95 1011.62 1012.42 1013.22 1013.91 1014.44 1014.80 1015.03 1015.19 1015.34 1015.53 1015.78 1016.08 1016.39 1016.68 1016.90 1017.02 1017.06 1017.02 1016.95 1016.88 1016.85 1016.86 1016.93 1017.03 1017.12 1017.18 1017.19 1017.14 1017.04 1016.91 1016.78 1016.68 1016.62
1011.26 1012.44 1013.80 1015.13 1016.21 1016.87 1017.00 1016.57 1015.66 1014.43 1013.11 1011.89 1010.97 1010.46 1010.39 1010.74 1011.39 1012.20 1013.03 1013.77 1014.35 1014.75 1015.01 1015.18 1015.33 1015.51 1015.75 1016.06 1016.40 1016.73 1017.02 1017.23 1017.35 1017.40 1017.39 1017.37 1017.37 1017.40 1017.45 1017.53 1017.61 1017.65 1017.65 1017.58 1017.47 1017.33 1017.18 1017.05 1016.95
1011.62 1012.90 1014.33 1015.72 1016.84 1017.51 1017.62 1017.16 1016.20 1014.90 1013.49 1012.18 1011.16 1010.56 1010.42 1010.71 1011.32 1012.12 1012.96 1013.72 1014.32 1014.74 1015.01 1015.18 1015.31 1015.48 1015.72 1016.03 1016.39 1016.77 1017.12 1017.40 1017.61 1017.73 1017.79 1017.82 1017.83 1017.86 1017.91 1017.98 1018.03 1018.07 1018.06 1018.01 1017.90 1017.77 1017.61 1017.47 1017.33
1011.93 1013.21 1014.64 1016.00 1017.09 1017.74 1017.84 1017.38 1016.43 1015.15 1013.74 1012.44 1011.41 1010.78 1010.61 1010.85 1011.42 1012.19 1013.00 1013.73 1014.33 1014.74 1015.01 1015.17 1015.30 1015.46 1015.68 1016.00 1016.38 1016.79 1017.19 1017.54 1017.81 1017.99 1018.11 1018.17 1018.20 1018.23 1018.27 1018.32 1018.38 1018.41 1018.42 1018.39 1018.32 1018.21 1018.07 1017.92 1017.77
1012.14 1013.34 1014.66 1015.92 1016.92 1017.52 1017.61 1017.19 1016.32 1015.14 1013.84 1012.63 1011.67 1011.08 1010.91 1011.12 1011.65 1012.35 1013.10 1013.79 1014.35 1014.74 1014.99 1015.15 1015.27 1015.43 1015.66 1015.97 1016.37 1016.80 1017.24 1017.63 1017.95 1018.18 1018.34 1018.42 1018.47 1018.51 1018.54 1018.59 1018.65 1018.70 1018.74 1018.75 1018.72 1018.65 1018.55 1018.41 1018.24
1012.22 1013.26 1014.41 1015.49 1016.36 1016.88 1016.97 1016.63 1015.89 1014.89 1013.78 1012.74 1011.92 1011.42 1011.27 1011.46 1011.92 1012.55 1013.21 1013.83 1014.33 1014.69 1014.93 1015.08 1015.22 1015.39 1015.63 1015.96 1016.37 1016.83 1017.29 1017.71 1018.06 1018.33 1018.51 1018.62 1018.68 1018.73 1018.77 1018.82 1018.89 1018.97 1019.05 1019.11 1019.14 1019.12 1019.05 1018.93 1018.77
1012.21 1013.04 1013.95 1014.81 1015.51 1015.94 1016.04 1015.78 1015.22 1014.44 1013.58 1012.76 1012.12 1011.73 1011.62 1011.80 1012.19 1012.71 1013.28 1013.80 1014.24 1014.57 1014.80 1014.97 1015.14 1015.35 1015.62 1015.98 1016.41 1016.88 1017.36 1017.80 1018.18 1018.47 1018.67 1018.81 1018.89 1018.95 1019.01 1019.08 1019.18 1019.29 1019.40 1019.51 1019.59 1019.62 1019.59 1019.50 1019.34
Thickness
5868 5869 5867 5855 5833 5818 5805 5811 5818 5815 5816 5824 5824 5816 5803 5796 5783 5768 5793 5801 5796 5788 5781 5777 5775 5774 5773 5771 5770 5770 5768 5766 5765 5764 5763 5763 5762 5761 5760 5759 5759 5759 5758 5757 5756 5755 5754 5753 5753
5876 5878 5866 5849 5824 5802 5801 5816 5815 5817 5824 5830 5825 5815 5802 5796 5801 5795 5798 5800 5798 5791 5783 5778 5775 5773 5772 5771 5769 5768 5767 5765 5764 5763 5762 5761 5760 5760 5759 5758 5757 5757 5756 5756 5755 5754 5753 5752 5752
5879 5880 5860 5847 5825 5807 5805 5821 5823 5829 5834 5827 5816 5813 5803 5795 5800 5799 5802 5804 5798 5790 5782 5777 5775 5773 5772 5771 5769 5768 5766 5765 5763 5762 5761 5760 5759 5758 5757 5756 5756 5755 5754 5754 5754 5753 5752 5751 5751
5880 5875 5866 5845 5822 5827 5829 5831 5834 5829 5830 5830 5818 5803 5804 5810 5806 5806 5809 5806 5798 5790 5783 5776 5774 5773 5772 5770 5769 5767 5765 5764 5762 5761 5760 5759 5758 5757 5757 5755 5755 5754 5753 5753 5752 5752 5751 5750 5750
5884 5864 5850 5833 5828 5836 5843 5844 5841 5829 5824 5823 5814 5797 5795 5810 5814 5812 5810 5807 5799 5792 5784 5777 5774 5773 5771 5769 5768 5766 5765 5763 5762 5760 5759 5758 5757 5756 5755 5754 5753 5753 5752 5752 5751 5751 5750 5750 5750
5870 5865 5841 5825 5828 5839 5846 5849 5842 5831 5826 5823 5813 5798 5795 5811 5812 5812 5812 5808 5803 5795 5785 5777 5774 5772 5770 5769 5767 5766 5764 5762 5761 5760 5759 5758 5756 5755 5754 5753 5752 5752 5751 5751 5750 5750 5750 5750 5751
5865 5859 5846 5837 5832 5834 5845 5853 5841 5831 5825 5826 5822 5800 5799 5810 5814 5815 5813 5809 5805 5798 5788 5781 5776 5772 5770 5768 5767 5765 5764 5762 5761 5759 5758 5757 5756 5755 5754 5753 5752 5751 5751 5750 5750 5749 5750 5750 5751
5887 5867 5851 5845 5836 5834 5851 5854 5849 5838 5829 5841 5835 5806 5798 5809 5819 5815 5811 5808 5804 5799 5793 5787 5781 5776 5772 5769 5766 5765 5763 5762 5761 5759 5758 5757 5756 5755 5754 5753 5752 5751 5751 5750 5750 5750 5750 5750 5751
5897 5859 5845 5847 5842 5842 5855 5849 5849 5852 5840 5839 5838 5826 5819 5819 5820 5812 5805 5802 5798 5796 5794 5792 5786 5780 5777 5773 5768 5766 5764 5763 5761 5760 5759 5758 5758 5757 5755 5754 5752 5752 5752 5751 5751 5751 5751 5751 5752
5881 5850 5851 5866 5865 5858 5857 5852 5850 5843 5831 5825 5824 5824 5824 5821 5816 5807 5800 5795 5793 5791 5793 5792 5788 5783 5781 5777 5771 5769 5768 5764 5764 5763 5762 5761 5760 5759 5757 5754 5753 5753 5753 5753 5753 5753 5753 5753 5754
5879 5861 5869 5874 5875 5870 5861 5858 5860 5843 5826 5825 5818 5817 5819 5817 5813 5808 5802 5798 5794 5794 5793 5791 5788 5784 5782 5779 5776 5774 5771 5767 5766 5764 5764 5763 5762 5761 5759 5756 5755 5755 5755 5756 5756 5755 5756 5757 5758
5876 5874 5878 5876 5878 5872 5864 5861 5856 5848 5841 5843 5835 5828 5821 5815 5812 5808 5803 5799 5797 5794 5793 5792 5788 5784 5782 5780 5778 5776 5774 5770 5767 5766 5765 5764 5764 5763 5761 5760 5760 5759 5759 5759 5760 5760 5760 5760 5761
5874 5874 5880 5881 5878 5873 5866 5858 5853 5848 5852 5849 5839 5830 5823 5818 5814 5812 5808 5803 5798 5794 5792 5791 5788 5784 5781 5779 5778 5777 5776 5773 5770 5768 5767 5766 5765 5764 5764 5763 5763 5762 5762 5762 5761 5761 5762 5762 5762
5877 5878 5878 5880 5875 5869 5855 5851 5849 5847 5853 5844 5835 5828 5825 5820 5816 5811 5805 5800 5797 5795 5792 5791 5788 5784 5781 5779 5779 5779 5777 5773 5772 5770 5769 5768 5766 5765 5764 5763 5764 5764 5764 5764 5763 5763 5763 5763 5763
5880 5868 5869 5874 5871 5866 5853 5832 5840 5852 5851 5840 5834 5830 5826 5823 5819 5811 5806 5802 5800 5796 5794 5791 5789 5786 5782 5780 5780 5780 5778 5776 5774 5771 5770 5769 5768 5767 5766 5765 5765 5765 5765 5764 5763 5763 5763 5763 5763
5867 5852 5842 5862 5869 5868 5848 5818 5842 5856 5848 5838 5834 5831 5826 5822 5820 5817 5812 5807 5804 5800 5795 5793 5793 5788 5784 5782 5780 5780 5780 5778 5776 5773 5771 5770 5769 5768 5767 5766 5766 5766 5766 5765 5764 5763 5762 5762 5762
5849 5836 5837 5850 5870 5867 5851 5828 5846 5857 5850 5839 5835 5831 5827 5822 5821 5819 5816 5811 5807 5802 5797 5793 5792 5788 5785 5783 5781 5780 5779 5778 5777 5775 5773 5772 5770 5770 5768 5767 5766 5766 5766 5766 5765 5763 5761 5760 5760
5837 5843 5846 5848 5866 5865 5850 5842 5850 5858 5854 5844 5839 5833 5828 5823 5822 5822 5819 5814 5809 5804 5799 5795 5792 5789 5787 5784 5782 5780 5779 5779 5778 5776 5774 5773 5771 5770 5770 5768 5767 5767 5766 5764 5764 5762 5762 5761 5760
5854 5849 5847 5858 5871 5861 5851 5846 5850 5857 5854 5846 5841 5836 5831 5828 5829 5826 5821 5817 5810 5804 5799 5795 5791 5788 5786 5783 5780 5777 5776 5777 5778 5777 5776 5774 5772 5771 5770 5769 5767 5767 5766 5765 5764 5762 5760 5760 5760
5852 5846 5850 5861 5869 5858 5848 5844 5853 5854 5854 5851 5845 5840 5836 5831 5828 5825 5822 5817 5811 5804 5800 5795 5792 5789 5787 5784 5782 5780 5779 5779 5779 5778 5777 5775 5773 5771 5771 5768 5767 5768 5766 5764 5763 5761 5759 5759 5761
5846 5846 5850 5852 5861 5861 5845 5829 5838 5848 5857 5857 5853 5850 5845 5837 5830 5826 5822 5818 5813 5806 5802 5799 5794 5791 5788 5786 5783 5782 5779 5777 5777 5776 5775 5775 5773 5772 5770 5769 5767 5767 5766 5763 5763 5762 5759 5756 5758
5834 5856 5856 5854 5843 5836 5842 5809 5826 5839 5842 5849 5852 5852 5849 5845 5838 5831 5826 5820 5816 5811 5807 5802 5797 5792 5789 5786 5783 5778 5774 5772 5774 5774 5775 5774 5773 5772 5770 5768 5767 5766 5765 5764 5763 5763 5761 5758 5754
5845 5862 5856 5851 5841 5833 5838 5820 5817 5838 5831 5843 5852 5854 5853 5850 5841 5835 5831 5825 5821 5816 5810 5804 5798 5793 5789 5786 5783 5779 5776 5776 5776 5775 5773 5772 5772 5771 5769 5768 5766 5765 5764 5763 5762 5762 5760 5758 5755
5855 5851 5847 5845 5837 5812 5830 5825 5815 5835 5841 5847 5855 5857 5855 5852 5845 5838 5835 5829 5822 5818 5812 5805 5797 5792 5789 5786 5783 5779 5776 5774 5772 5771 5769 5769 5769 5769 5768 5767 5764 5763 5762 5762 5761 5760 5759 5758 5756
5844 5825 5805 5799 5797 5801 5836 5831 5828 5851 5862 5862 5857 5856 5856 5852 5846 5838 5833 5826 5821 5816 5811 5806 5798 5792 5789 5786 5783 5779 5776 5774 5771 5769 5767 5766 5766 5765 5764 5764 5762 5761 5760 5760 5760 5759 5757 5756 5754
5834 5827 5801 5787 5791 5809 5829 5825 5841 5863 5869 5870 5866 5861 5855 5852 5847 5838 5833 5828 5822 5817 5812 5806 5799 5793 5789 5785 5782 5779 5777 5774 5771 5769 5767 5765 5764 5763 5763 5762 5760 5759 5758 5758 5757 5756 5755 5754 5752
5829 5827 5838 5821 5817 5813 5822 5835 5846 5862 5861 5862 5861 5857 5852 5850 5846 5839 5833 5828 5822 5817 5812 5807 5799 5793 5789 5785 5781 5778 5775 5772 5769 5768 5766 5764 5762 5762 5760 5759 5758 5757 5756 5755 5754 5752 5751 5751 5750
5844 5839 5829 5814 5795 5793 5809 5817 5826 5839 5845 5852 5854 5851 5851 5849 5845 5840 5832 5828 5822 5818 5812 5807 5800 5793 5788 5785 5781 5778 5774 5771 5769 5765 5762 5760 5759 5758 5757 5756 5755 5753 5752 5751 5750 5749 5748 5747 5746
5828 5827 5825 5821 5816 5797 5791 5808 5847 5846 5850 5850 5850 5851 5850 5848 5843 5838 5833 5828 5823 5818 5811 5803 5797 5791 5787 5783 5780 5776 5773 5770 5767 5763 5760 5758 5756 5755 5754 5752 5751 5749 5748 5747 5746 5745 5744 5742 5741
5838 5831 5826 5805 5802 5811 5802 5805 5853 5854 5855 5854 5851 5852 5852 5848 5844 5838 5833 5827 5820 5814 5808 5801 5796 5791 5787 5783 5778 5775 5772 5768 5764 5760 5758 5756 5754 5753 5751 5750 5748 5746 5744 5743 5742 5740 5739 5738 5736